Regional Weather Roundup
Issued by NWS Newport/Morehead, NC

Current Version | Previous Version | Graphics & Text | Print | Product List | Glossary Off
Versions: 1 2 3 4 5 6 7 8 9 10 11 12 13 14 15 16 17 18 19 20 21 22 23 24 25 26 27 28 29 30 31 32 33 34 35 36 37 38 39 40 41 42 43 44 45 46 47 48 49 50

000
ASUS42 KMHX 222125
RWRMHX
WEATHER ROUNDUP FOR EASTERN NORTH CAROLINA
NATIONAL WEATHER SERVICE NEWPORT/MOREHEAD CITY NC
500 PM EDT TUE AUG 22 2017

NOTE: "FAIR" INDICATES FEW OR NO CLOUDS BELOW 12,000 FEET
WITH NO SIGNIFICANT WEATHER AND/OR OBSTRUCTIONS TO VISIBILITY

NCZ015>017-031-032-045>047-102-103-222200-
NORTH COAST

CITY           SKY/WX    TMP DP  RH WIND       PRES   REMARKS
EDENTON        SUNNY     89  76  66 S12       29.97F HX 100
ELIZABETH CITY PTSUNNY   90  77  65 S10       29.97F HX 103
KITTY HAWK     CLEAR     86  74  68 S8        29.97F
MANTEO         SUNNY     87  74  66 SW20      29.99F

$$

NCZ045>047-081-094-103-104-222200-
CENTRAL COAST

CITY           SKY/WX    TMP DP  RH WIND       PRES   REMARKS
FRISCO         SUNNY     86  78  77 SW13      30.02F

$$

NCZ095-097-098-100-101-222200-
SOUTHERN COAST

CITY           SKY/WX    TMP DP  RH WIND       PRES   REMARKS
BEAUFORT       MOSUNNY   85  78  80 S13       30.01F
CEDAR ISLAND   NOT AVBL
JACKSONVILLE   MOSUNNY   83  78  85 S6        30.00F
PINEY ISLAND   MOCLDY   N/A N/A N/A S10       30.01F
WILMINGTON     SUNNY     90  73  57 SW8       30.00F


$$

NCZ011>013-027>030-043-044-078>080-089-090>093-098-222200-
COASTAL PLAIN

CITY           SKY/WX    TMP DP  RH WIND       PRES   REMARKS
AHOSKIE          N/A     87  75  66 S6        29.96F
CLINTON        SUNNY     92  75  57 S6        29.97F HX 102
ELIZABETHTOWN  NOT AVBL
GOLDSBORO      MOSUNNY   88  78  72 S8        29.97F HX 101
GREENVILLE     MOSUNNY   88  77  70 S8        29.99F HX 100
HAVELOCK       PTSUNNY   85  75  72 SW9       30.02F
KENANSVILLE    CLOUDY    86  75  70 SE5       29.98F
KINSTON        MOSUNNY   90  75  62 S12G17    29.99F HX 100
NEW BERN       PTSUNNY   87  76  69 S12       30.01F
RICHLANDS      PTSUNNY   77  76  96 S5        30.01F
ROCKY MOUNT    SUNNY     91  74  57 S7        29.96F HX 100
WASHINGTON     MOSUNNY   86  73  66 S9        29.98F
WHITEVILLE     MOSUNNY   89  75  63 S14       30.00S

$$

AMZ130-135-150-152-154-156-158-170-250-252-270-ANZ085-086-088-633-658-670-222200-
MARINE OBSERVATIONS

STATION/POSITION TIME  TEMP    WIND        PRES    WAVE   SWELL
                       AIR SEA DIR/SP/G            HT/PER HT/PER
                 (UTC) (F)     (DEG/KT/KT) (MB)    (FT/S) (FT/S)
CHESAPEAKE LIGHT NOT AVBL
64 E VA BEACH    2050   80 81  190/ 12/ 14 1016.2    3/11   3/11
DUCK             2100   86 78  180/ 14/ 17 1014.5
2 E DUCK         2030      83                N/A     3/11   2/11
OREGON INLET     2100   84 86  180/ 17/ 20 1015.8
13E OREGON INLT  2048      81                N/A     3/11   3/11
HATTERAS CG      2100   85 83  210/  8/ 12 1016.5
DIAMOND BUOY     2050   83 87  210/ 16/ 17 1016.8    4/10   3/10
CAPE LOOKOUT     2100   83     180/ 12/ 13 1016.1
BEAUFORT LAB     2100   83 83  210/ 11/ 14 1015.8
30 SE NEW RVR IN 2108   82 84  210/ 12/ 14 1016.5
30 SE NEW RVR IN 2043      84                N/A     5/11   2/11
27 SE WRIGHTSVLE 2108   84 84  190/ 12/ 16 1016.3
5 SE WRIGHTSVLE  2108   84 84  190/ 14/ 17 1016.1
225 S CAPE HAT   2050   83 85  140/  4/  6 1018.2    5/10   5/10
41 SE CHARLESTON 2110   82 86  230/  8/ 12 1016.5

$$



USA.gov is the U.S. government's official web portal to all federal, state and local government web resources and services.